STARLINK-2367 (47907 NORAD) Tracking and Keplerian Element Data

This shows tracking and keplerian element data for the satellite.

Feedback or suggestion? Click here.




ElementValue
Catalog47907
NameSTARLINK-2367
Epoch Orbit185
Epoch Day170.58334491
Epoch Year2021
RAAN101.4536
Inclination53.047
Eccentricity0.0001545
Argument of Perigee62.2872
Mean Anonmoly154.6211
Mean Motion15.10550881
Decay Rate-0.0110295
L11 47907U 21021AZ 21170.58334491 -.01102950 00000-0 -71570-1 0 9992
L22 47907 53.0470 101.4536 0001545 62.2872 154.6211 15.10550881 1858

Live tracking and technical data element details for STARLINK-2367 (NORAD 47907). STARLINK-2367 can be tracked NOW for your location showing map with azimuth and elevation plus other details from your city location.

Track the satellite on the map from your city or location and see movement details for azimuth, elevation, latitude, longitude, range, height, and movement on the map or in text.







IsCatalogInMostPopularTable: catalog: 47907, numindb: 46
Update: records affected: 1



GetName: 47907 STARLINK-2367

Hit Count: updated at: Mon, 21 Jun 2021 04:59:47 GMT